FW7211 Weather Reports


Display with metric or nautical units.
time (UTC)temp
F
wind
direction
speed
MPH
gust
MPH
rain 1hr
in
rain 24hr
in
rain mn
in
humidity
%
barometer
mb
20260510154415 68 62 2.0 3.0 0.00 0.00 0.00 76
20260510153909 68 145 3.0 5.0 0.00 0.00 0.00 79
20260510153406 68 148 3.0 4.0 0.00 0.00 0.00 79
20260510152902 68 119 1.0 3.0 0.00 0.00 0.00 78
20260510152400 68 104 1.0 3.0 0.00 0.00 0.00 78
20260510151856 68 136 2.0 3.0 0.00 0.00 0.00 80
20260510151354 69 108 1.0 2.0 0.00 0.00 0.00 79
20260510150850 69 103 0.0 2.0 0.00 0.00 0.00 78
20260510150345 70 103 0.0 1.0 0.00 0.00 0.00 80
20260510145841 70 54 2.0 2.0 0.00 0.00 0.00 79
20260510145338 70 50 2.0 2.0 0.00 0.00 0.00 78
20260510144835 69 28 0.0 3.0 0.00 0.00 0.00 79
20260510144331 70 0 1.0 2.0 0.00 0.00 0.00 79
20260510143831 69 269 0.0 3.0 0.00 0.00 0.00 80
20260510143327 69 353 2.0 3.0 0.00 0.00 0.00 78
20260510142824 69 168 0.0 2.0 0.00 0.00 0.00 80
20260510142321 69 156 0.0 2.0 0.00 0.00 0.00 80
20260510141817 68 101 2.0 2.0 0.00 0.00 0.00 80
20260510141315 67 113 2.0 2.0 0.00 0.00 0.00 81
20260510140813 67 132 2.0 3.0 0.00 0.00 0.00 82
20260510140308 68 53 2.0 3.0 0.00 0.00 0.00 79
20260510135801 67 97 1.0 2.0 0.00 0.00 0.00 83
20260510135257 67 159 3.0 4.0 0.00 0.00 0.00 81
20260510134755 67 133 1.0 2.0 0.00 0.00 0.00 81
20260510134252 68 120 2.0 3.0 0.00 0.00 0.00 77
20260510133748 67 107 2.0 2.0 0.00 0.00 0.00 78
20260510133244 67 16 2.0 2.0 0.00 0.00 0.00 77
20260510132740 66 108 2.0 3.0 0.00 0.00 0.00 79
20260510132238 65 89 2.0 2.0 0.00 0.00 0.00 82
20260510131734 65 87 1.0 3.0 0.00 0.00 0.00 83
20260510131233 64 166 1.0 4.0 0.00 0.00 0.00 82
20260510130728 65 111 2.0 2.0 0.00 0.00 0.00 83
20260510130226 65 69 2.0 3.0 0.00 0.00 0.00 82
20260510125722 65 65 1.0 2.0 0.00 0.00 0.00 83
20260510125218 65 47 0.0 4.0 0.00 0.00 0.00 83
20260510124715 64 110 0.0 2.0 0.00 0.00 0.00 84
20260510124213 64 66 0.0 2.0 0.00 0.00 0.00 87
20260510123707 64 78 0.0 2.0 0.00 0.00 0.00 87
20260510123204 62 149 2.0 2.0 0.00 0.00 0.00 89
20260510122700 62 75 0.0 1.0 0.00 0.00 0.00 93
20260510122157 60 134 2.0 2.0 0.00 0.00 0.00 94
20260510121653 59 137 0.0 2.0 0.00 0.00 0.00 96
20260510121150 59 76 0.0 2.0 0.00 0.00 0.00 97
20260510120648 58 127 1.0 3.0 0.00 0.00 0.00 99
20260510120143 58 107 1.0 2.0 0.00 0.00 0.00 99
20260510115640 57 121 1.0 3.0 0.00 0.00 0.00 99
20260510115138 57 93 2.0 2.0 0.00 0.00 0.00 99
20260510114633 57 102 1.0 2.0 0.00 0.00 0.00 99
20260510114130 56 82 2.0 3.0 0.00 0.00 0.00 99
20260510113625 56 89 0.0 2.0 0.00 0.00 0.00 99
20260510113123 55 89 1.0 2.0 0.00 0.00 0.00 99
20260510112619 55 82 1.0 2.0 0.00 0.00 0.00 99
20260510112116 55 76 2.0 2.0 0.00 0.00 0.00 99
20260510111612 54 77 2.0 2.0 0.00 0.00 0.00 99
20260510111108 54 83 1.0 2.0 0.00 0.00 0.00 99
20260510110604 54 70 1.0 1.0 0.00 0.00 0.00 99
20260510110101 54 100 0.0 2.0 0.00 0.00 0.00 99
20260510105556 53 66 0.0 2.0 0.00 0.00 0.00 99
20260510105051 53 81 2.0 2.0 0.00 0.00 0.00 99
20260510104548 53 84 2.0 2.0 0.00 0.00 0.00 99
20260510104044 53 81 1.0 2.0 0.00 0.00 0.00 99
20260510103542 53 110 2.0 2.0 0.00 0.00 0.00 99
20260510103038 53 81 2.0 2.0 0.00 0.00 0.00 99
20260510102533 53 65 2.0 3.0 0.00 0.00 0.00 99
20260510102030 53 66 0.0 2.0 0.00 0.00 0.00 99
20260510101528 53 92 2.0 2.0 0.00 0.00 0.00 99
20260510101026 53 51 1.0 3.0 0.00 0.00 0.00 99
20260510100522 53 63 2.0 3.0 0.00 0.00 0.00 99
20260510100019 53 83 2.0 2.0 0.00 0.00 0.00 99
20260510095515 54 96 1.0 2.0 0.00 0.00 0.00 99
20260510095014 53 85 1.0 2.0 0.00 0.00 0.00 99
20260510094509 53 119 1.0 2.0 0.00 0.00 0.00 99
20260510094004 53 55 0.0 2.0 0.00 0.00 0.00 99
20260510093455 53 66 3.0 3.0 0.00 0.00 0.00 99
20260510092951 53 93 1.0 2.0 0.00 0.00 0.00 99
20260510092448 53 79 1.0 2.0 0.00 0.00 0.00 99
20260510091948 53 114 0.0 2.0 0.00 0.00 0.00 99
20260510091445 53 77 2.0 2.0 0.00 0.00 0.00 99
20260510090941 53 86 2.0 2.0 0.00 0.00 0.00 99
20260510090439 53 92 1.0 2.0 0.00 0.00 0.00 99
20260510085934 53 102 1.0 2.0 0.00 0.00 0.00 99
20260510085429 53 95 2.0 2.0 0.00 0.00 0.00 99
20260510084925 53 73 1.0 2.0 0.00 0.00 0.00 99
20260510084422 53 74 2.0 2.0 0.00 0.00 0.00 99
20260510083919 53 76 1.0 2.0 0.00 0.00 0.00 99
20260510083415 53 108 1.0 2.0 0.00 0.00 0.00 99
20260510082911 53 115 2.0 2.0 0.00 0.00 0.00 99
20260510082409 53 130 0.0 1.0 0.00 0.00 0.00 99
20260510081907 53 109 1.0 2.0 0.00 0.00 0.00 99
20260510081403 53 88 1.0 2.0 0.00 0.00 0.00 99
20260510080900 53 74 2.0 2.0 0.00 0.00 0.00 99
20260510080354 53 85 2.0 2.0 0.00 0.00 0.00 99
20260510075852 54 67 2.0 2.0 0.00 0.00 0.00 99
20260510075349 53 54 2.0 2.0 0.00 0.00 0.00 99
20260510074845 53 87 1.0 2.0 0.00 0.00 0.00 99
20260510074343 54 89 0.0 1.0 0.00 0.00 0.00 99
20260510073839 54 108 1.0 1.0 0.00 0.00 0.00 99
20260510073334 54 89 1.0 2.0 0.00 0.00 0.00 99
20260510072831 54 60 2.0 3.0 0.00 0.00 0.00 99
20260510072328 54 58 2.0 2.0 0.00 0.00 0.00 99
20260510071824 54 89 1.0 1.0 0.00 0.00 0.00 99
20260510071320 54 89 0.0 2.0 0.00 0.00 0.00 99
20260510070820 54 102 2.0 2.0 0.00 0.00 0.00 99
20260510070311 54 82 0.0 2.0 0.00 0.00 0.00 99
20260510065810 55 95 1.0 2.0 0.00 0.00 0.00 99
20260510065307 55 93 1.0 2.0 0.00 0.00 0.00 99
20260510064804 55 93 1.0 2.0 0.00 0.00 0.00 99
20260510064302 55 86 2.0 2.0 0.00 0.00 0.00 99
20260510063757 55 89 1.0 2.0 0.00 0.00 0.00 99
20260510063254 55 100 2.0 2.0 0.00 0.00 0.00 99
20260510062750 55 109 1.0 2.0 0.00 0.00 0.00 99
20260510062246 55 98 1.0 2.0 0.00 0.00 0.00 98
20260510061742 55 89 1.0 2.0 0.00 0.00 0.00 98
20260510061239 55 99 1.0 2.0 0.00 0.00 0.00 98
20260510060735 55 105 1.0 2.0 0.00 0.00 0.00 98
20260510060232 55 105 1.0 2.0 0.00 0.00 0.00 98
20260510055729 55 94 1.0 1.0 0.00 0.00 0.00 98
20260510055227 55 93 1.0 2.0 0.00 0.00 0.00 98
20260510054722 55 89 1.0 2.0 0.00 0.00 0.00 98
20260510054218 55 95 1.0 2.0 0.00 0.00 0.00 98
20260510053717 55 97 1.0 1.0 0.00 0.00 0.00 98
20260510053214 56 83 1.0 2.0 0.00 0.00 0.00 98
20260510052709 56 89 1.0 1.0 0.00 0.00 0.00 98
20260510052206 56 89 1.0 1.0 0.00 0.00 0.00 98
20260510051701 56 92 1.0 1.0 0.00 0.00 0.00 98
20260510051158 56 82 1.0 1.0 0.00 0.00 0.00 98
20260510050656 56 81 0.0 2.0 0.00 0.00 0.00 98
20260510050153 56 111 2.0 2.0 0.00 0.00 0.00 98
20260510045649 56 87 1.0 2.0 0.00 0.00 0.00 98
20260510045146 56 83 1.0 1.0 0.00 0.00 0.00 98
20260510044642 56 89 1.0 1.0 0.00 0.00 0.00 97
20260510044140 56 85 1.0 2.0 0.00 0.00 0.00 97
20260510043635 57 89 1.0 1.0 0.00 0.00 0.00 97
20260510043132 56 89 0.0 2.0 0.00 0.00 0.00 97
20260510042630 56 83 1.0 2.0 0.00 0.00 0.00 97
20260510042125 57 59 2.0 2.0 0.00 0.00 0.00 97
20260510041623 57 81 1.0 2.0 0.00 0.00 0.00 97
20260510041120 57 87 0.0 1.0 0.00 0.00 0.00 97
20260510040617 57 76 0.0 2.0 0.00 0.00 0.00 97
20260510040113 57 97 0.0 1.0 0.00 0.00 0.00 97
20260510035610 57 85 0.0 2.0 0.00 0.00 0.00 97
20260510035109 57 89 1.0 1.0 0.00 0.00 0.00 97
20260510034607 57 110 1.0 1.0 0.00 0.00 0.00 96
20260510034104 57 80 1.0 2.0 0.00 0.00 0.00 96
20260510033600 58 121 0.0 1.0 0.00 0.00 0.00 96
20260510033058 58 112 1.0 2.0 0.00 0.00 0.00 96
20260510032554 58 89 0.0 1.0 0.00 0.00 0.00 96
20260510032050 58 109 1.0 1.0 0.00 0.00 0.00 96
20260510031550 58 100 1.0 1.0 0.00 0.00 0.00 96
20260510031046 58 87 1.0 1.0 0.00 0.00 0.00 96
20260510030541 58 107 1.0 1.0 0.00 0.00 0.00 96
20260510030039 58 110 0.0 1.0 0.00 0.00 0.00 96
20260510025536 58 93 1.0 1.0 0.00 0.00 0.00 95
20260510025034 58 92 1.0 1.0 0.00 0.00 0.00 96
20260510024530 58 97 1.0 2.0 0.00 0.00 0.00 95
20260510024026 58 83 1.0 1.0 0.00 0.00 0.00 95
20260510023522 58 107 1.0 2.0 0.00 0.00 0.00 95
20260510023021 58 93 1.0 1.0 0.00 0.00 0.00 96
20260510022520 59 89 0.0 1.0 0.00 0.00 0.00 96
20260510022020 59 98 1.0 1.0 0.00 0.00 0.00 96
20260510021516 59 117 1.0 1.0 0.00 0.00 0.00 96
20260510021014 59 103 0.0 2.0 0.00 0.00 0.00 95
20260510020508 59 103 0.0 2.0 0.00 0.00 0.00 95
20260510020004 59 106 0.0 1.0 0.00 0.00 0.00 95
20260510015500 59 89 1.0 1.0 0.00 0.00 0.00 95
20260510014955 59 104 0.0 1.0 0.00 0.00 0.00 95
20260510014453 59 101 1.0 1.0 0.00 0.00 0.00 94
20260510013950 59 95 0.0 1.0 0.00 0.00 0.00 94
20260510013444 59 94 1.0 1.0 0.00 0.00 0.00 94
20260510012940 59 95 0.0 1.0 0.00 0.00 0.00 94
20260510012429 59 100 1.0 1.0 0.00 0.00 0.00 94
20260510011924 59 96 1.0 1.0 0.00 0.00 0.00 94
20260510011419 59 89 0.0 1.0 0.00 0.00 0.00 94
20260510010916 59 89 1.0 1.0 0.00 0.00 0.00 94
20260510010413 59 81 1.0 2.0 0.00 0.00 0.00 94
20260510005910 60 112 1.0 2.0 0.00 0.00 0.00 93
20260510005406 60 92 0.0 1.0 0.00 0.00 0.00 93
20260510004904 60 78 2.0 2.0 0.00 0.00 0.00 93
20260510004402 60 78 2.0 2.0 0.00 0.00 0.00 92
20260510003859 60 87 1.0 2.0 0.00 0.00 0.00 91
20260510003355 61 66 2.0 2.0 0.00 0.00 0.00 90
20260510002854 61 64 2.0 2.0 0.00 0.00 0.00 90
20260510002351 61 109 0.0 1.0 0.00 0.00 0.00 89
20260510001843 62 77 1.0 1.0 0.00 0.00 0.00 88
20260510001341 62 85 1.0 1.0 0.00 0.00 0.00 87
20260510000837 62 101 1.0 1.0 0.00 0.00 0.00 86
20260510000334 62 84 1.0 1.0 0.00 0.00 0.00 86
20260509235831 62 93 1.0 1.0 0.00 0.00 0.00 85
20260509235327 63 95 0.0 1.0 0.00 0.00 0.00 84
20260509234823 63 89 0.0 1.0 0.00 0.00 0.00 84
20260509234320 64 89 0.0 1.0 0.00 0.00 0.00 82
20260509233818 64 81 0.0 1.0 0.00 0.00 0.00 82
20260509233316 64 77 1.0 1.0 0.00 0.00 0.00 80
20260509232811 64 50 0.0 0.0 0.00 0.00 0.00 80
20260509232309 65 113 0.0 2.0 0.00 0.00 0.00 82
20260509231805 64 60 0.0 2.0 0.00 0.00 0.00 81
20260509231302 65 42 1.0 2.0 0.00 0.00 0.00 81
20260509230800 65 80 0.0 1.0 0.00 0.00 0.00 82
20260509230257 65 22 1.0 1.0 0.00 0.00 0.00 80
20260509225757 66 116 0.0 0.0 0.00 0.00 0.00 78
20260509225253 66 60 1.0 2.0 0.00 0.00 0.00 81
20260509224749 67 82 0.0 1.0 0.00 0.00 0.00 76
20260509224246 67 85 1.0 2.0 0.00 0.00 0.00 75
20260509223743 67 89 0.0 1.0 0.00 0.00 0.00 75
20260509223240 67 124 0.0 1.0 0.00 0.00 0.00 74
20260509222737 67 64 1.0 2.0 0.00 0.00 0.00 74
20260509222232 68 97 0.0 1.0 0.00 0.00 0.00 75
20260509221728 68 37 0.0 2.0 0.00 0.00 0.00 76
20260509221225 68 50 0.0 0.0 0.00 0.00 0.00 73
20260509220721 68 50 0.0 0.0 0.00 0.00 0.00 74
20260509220218 68 23 0.0 1.0 0.00 0.00 0.00 74
20260509215713 68 53 0.0 2.0 0.00 0.00 0.00 76
20260509215209 68 109 2.0 2.0 0.00 0.00 0.00 74
20260509214707 69 197 0.0 2.0 0.00 0.00 0.00 74
20260509214204 69 48 0.0 2.0 0.00 0.00 0.00 67
20260509213700 69 117 0.0 2.0 0.00 0.00 0.00 67
20260509213156 69 89 0.0 2.0 0.00 0.00 0.00 70
20260509212654 69 336 0.0 2.0 0.00 0.00 0.00 70
20260509212150 70 27 2.0 3.0 0.00 0.00 0.00 66
20260509211646 71 38 0.0 2.0 0.00 0.00 0.00 70
20260509211143 71 106 1.0 2.0 0.00 0.00 0.00 66
20260509210640 70 38 0.0 2.0 0.00 0.00 0.00 73
20260509210132 72 81 1.0 1.0 0.00 0.00 0.00 69
20260509205627 71 89 0.0 2.0 0.00 0.00 0.00 69
20260509205126 72 20 1.0 1.0 0.00 0.00 0.00 70
20260509204623 71 109 0.0 1.0 0.00 0.00 0.00 68
20260509204120 71 105 1.0 3.0 0.00 0.00 0.00 67
20260509203616 70 96 1.0 2.0 0.00 0.00 0.00 71
20260509203115 69 55 1.0 2.0 0.00 0.00 0.00 75
20260509202614 69 18 2.0 2.0 0.00 0.00 0.00 73
20260509202105 69 75 0.0 1.0 0.00 0.00 0.00 75
20260509201605 67 163 2.0 2.0 0.00 0.00 0.00 76
20260509201103 67 106 2.0 2.0 0.00 0.00 0.00 78
20260509200602 67 89 0.0 2.0 0.00 0.00 0.00 78
20260509200059 68 119 2.0 4.0 0.00 0.00 0.00 74
20260509195554 69 137 2.0 3.0 0.00 0.00 0.00 78
20260509195049 68 168 1.0 2.0 0.00 0.00 0.00 79
20260509194544 68 142 2.0 2.0 0.00 0.00 0.00 82
20260509194042 67 151 2.0 3.0 0.00 0.00 0.00 82
20260509193537 67 176 0.0 2.0 0.00 0.00 0.00 81
20260509193033 66 101 0.0 2.0 0.00 0.00 0.00 87
20260509192530 64 66 0.0 2.0 0.00 0.00 0.00 93
20260509192025 63 69 1.0 2.0 0.00 0.00 0.00 95
20260509191520 62 30 1.0 2.0 0.00 0.00 0.00 95
20260509191016 62 30 2.0 2.0 0.00 0.00 0.00 94
20260509190513 62 17 2.0 3.0 0.00 0.00 0.00 92
20260509190011 63 136 2.0 2.0 0.00 0.00 0.00 91
20260509185508 63 202 0.0 2.0 0.00 0.00 0.00 88
20260509185004 64 269 0.0 3.0 0.00 0.00 0.00 82
20260509184503 64 122 2.0 3.0 0.00 0.00 0.00 81
20260509183958 65 77 0.0 2.0 0.00 0.00 0.00 81
20260509183453 65 120 2.0 2.0 0.00 0.00 0.00 80
20260509182949 65 95 2.0 2.0 0.00 0.00 0.00 80
20260509182445 65 168 2.0 4.0 0.00 0.00 0.00 79
20260509181943 65 54 1.0 3.0 0.00 0.00 0.00 81
20260509181441 66 117 1.0 2.0 0.00 0.00 0.00 79
20260509180938 66 119 2.0 2.0 0.00 0.00 0.00 79
20260509180433 66 106 1.0 2.0 0.00 0.00 0.00 79
20260509175930 66 98 0.0 1.0 0.00 0.00 0.00 79
20260509175427 65 121 2.0 2.0 0.00 0.00 0.00 78
20260509174923 65 127 2.0 3.0 0.00 0.00 0.00 79
20260509174419 65 112 1.0 3.0 0.00 0.00 0.00 78
20260509173915 66 34 0.0 3.0 0.00 0.00 0.00 78
20260509173415 66 119 2.0 2.0 0.00 0.00 0.00 78
20260509172912 66 119 2.0 2.0 0.00 0.00 0.00 78
20260509172409 66 110 2.0 3.0 0.00 0.00 0.00 78
20260509171904 66 124 2.0 3.0 0.00 0.00 0.00 78
20260509171401 66 93 1.0 2.0 0.00 0.00 0.00 76
20260509170857 67 117 2.0 3.0 0.00 0.00 0.00 76
20260509170347 66 140 3.0 4.0 0.00 0.00 0.00 77
20260509165841 66 115 2.0 3.0 0.00 0.00 0.00 77
20260509165331 66 114 2.0 2.0 0.00 0.00 0.00 74
20260509164827 66 89 0.0 4.0 0.00 0.00 0.00 74
20260509164323 66 60 0.0 3.0 0.00 0.00 0.00 75
20260509163820 66 103 0.0 2.0 0.00 0.00 0.00 75
20260509163317 66 55 2.0 3.0 0.00 0.00 0.00 75
20260509162816 66 42 2.0 3.0 0.00 0.00 0.00 74
20260509162309 66 106 2.0 4.0 0.00 0.00 0.00 75
20260509161805 66 84 1.0 2.0 0.00 0.00 0.00 75
20260509161301 66 122 2.0 2.0 0.00 0.00 0.00 76
20260509160757 66 96 2.0 3.0 0.00 0.00 0.00 77
20260509160253 66 124 2.0 3.0 0.00 0.00 0.00 76
20260509155748 66 94 1.0 3.0 0.00 0.00 0.00 76
20260509155245 67 115 2.0 3.0 0.00 0.00 0.00 75
20260509154741 67 101 2.0 3.0 0.00 0.00 0.00 74